Regional Weather Roundup
Issued by NWS

Home | Current Version | Previous Version | Text Only | Print | Product List | Glossary On
Versions: 1 2 3 4 5 6 7 8 9 10 11 12 13 14 15 16 17 18 19 20 21 22 23 24 25 26 27 28 29 30 31 32 33 34 35 36 37 38 39 40 41 42 43 44 45 46 47 48 49 50
000
ASUS44 KFWD 241115
RWRTX
NORTH TEXAS HOURLY WEATHER ROUNDUP
NATIONAL WEATHER SERVICE FORT WORTH TX
600 AM CDT SAT JUN 24 2017

NOTE: "FAIR" INDICATES FEW OR NO CLOUDS BELOW 12,000 FEET WITH NO
SIGNIFICANT WEATHER AND/OR OBSTRUCTIONS TO VISIBILITY.

TXZ118-119-241200-
DALLAS/FORT WORTH METROPLEX

CITY           SKY/WX    TMP DP  RH WIND       PRES   REMARKS
DFW AIRPORT    CLOUDY    74  70  87 E6        29.99R
DALLAS LOVE    CLOUDY    74  71  91 E3        30.02R
FTW MEACHAM    TSTM      73  71  93 SE5       30.02R
DAL-EXECUTIVE  CLOUDY    72  72 100 E3        30.01R
FTW-ALLIANCE   CLOUDY    72  70  93 N9        30.03R THUNDER
FTW-NAS-JRB    TSTM      72  70  93 N8        30.07R
FTW-SPINKS     DRIZZLE   71  69  93 CALM      30.05R
ARLINGTON      CLOUDY    72  70  93 S5        30.02R
GRAND PRAIRIE  CLOUDY    72  72 100 CALM      30.01R
ADDISON        PTCLDY    73  70  88 MISG      30.02R
MESQUITE       CLOUDY    72  71  96 SE10      30.00R
LANCASTER      RAIN      71  70  97 SE10      29.99F
$$

TXZ091>094-102>105-117-120-121-131>134-241200-
NORTH CENTRAL TEXAS

CITY           SKY/WX    TMP DP  RH WIND       PRES   REMARKS
SHRMAN/DENISON TSTM      72  71  97 NE8       30.04R
GAINESVILLE    MIX PCPN  65  64  96 N23G31    30.09R VSB 3/4
BOWIE          CLOUDY    67  67 100 N13G24    30.04F
BRIDGEPORT     TSTM      69  69 100 NE15G26   30.09R
DECATUR        HVY RAIN  68  67  96 NE15G32   30.06R VSB 1
DENTON         CLOUDY    73  70  90 W10       30.05R
MCKINNEY       CLOUDY    72  72 100 E5        30.02R
BONHAM         LGT RAIN  73  70  88 E10       30.03S
GREENVILLE     CLOUDY    73  72  94 E3        30.03R
ROCKWALL       CLOUDY    72  72  99 CALM      30.02R
TERRELL        LGT RAIN  72  69  90 CALM      30.02R
WAXAHACHIE     LGT RAIN  70  70 100 S7        30.02R
GRANBURY         N/A     73  69  89 E12       30.04R
$$

TXZ083>090-098>101-113>116-127>130-139>142-154-155-241200-
WESTERN NORTH TEXAS

CITY           SKY/WX    TMP DP  RH WIND       PRES   REMARKS
WICHITA FALLS  LGT RAIN  67  63  87 NE16      30.09R
WF-KICKAPOO    CLOUDY    65  64  96 NE6       30.10S
VERNON         CLOUDY    65  62  89 N9        30.14R
ABILENE        CLOUDY    68  65  90 NE18G38   30.09R
ABILENE-DYESS  CLOUDY    70  63  78 NE23G31   30.08R
GRAHAM         RAIN      67  32  26 NE10G22   30.07R
BRECKENRIDGE   TSTM      69  68  98 NE33G43   30.04R
CISCO          CLOUDY    75  70  83 E9        30.02R
EASTLAND       CLOUDY    74  68  82 N13G20    30.05R
MINERAL WELLS  TSTM      70  67  90 NE18G32   30.06R
STEPHENVILLE   CLOUDY    71  67  87 SE14G23   30.02R
COMANCHE       CLOUDY    73  72  95 SE14G23   30.00R
BROWNWOOD      CLOUDY    81  72  74 E13       29.99R
COLEMAN        CLOUDY    76  62  61 CALM      30.00R
$$

TXZ143>147-156>162-174-175-241200-
CENTRAL TEXAS

CITY           SKY/WX    TMP DP  RH WIND       PRES   REMARKS
WACO             N/A    N/A N/A N/A MISG      30.02R THUNDER
WACO-MCGREGOR  HVY RAIN  70  70 100 E14       30.05R VSB 1
HILLSBORO      RAIN      70  69  96 CALM      30.01R
CORSICANA      LGT RAIN  71  69  93 S10       30.01F
MEXIA          CLOUDY    68  67  96 CALM      30.02F
HEARNE         CLOUDY    75  68  79 NE18G26   30.03R
CAMERON        CLOUDY    78  76  94 E12G17    30.02R
TEMPLE         CLOUDY    73  68  83 E23G35    30.04R
KILLEEN        CLOUDY    77  73  88 SE14      29.99R
KILLEEN-SKYLRK CLOUDY    78  75  90 SE10      29.99R
FORT HOOD      CLOUDY    75  73  94 SE10      29.98R
HAMILTON       CLOUDY    72  72 100 E14       30.02F
$$

TXZ095>097-106>112-122>126-135>138-148>153-164>167-241200-
EAST TEXAS

CITY           SKY/WX    TMP DP  RH WIND       PRES   REMARKS
PARIS            N/A     72  69  90 E10       30.05R
SULPHUR SPRNGS   N/A     73  73 100 NE3       30.05R
MOUNT PLEASANT CLOUDY    71  71 100 E5        30.05R
GILMER         LGT RAIN  70  69  97 W7        30.03R
MINEOLA        LGT RAIN  70  70 100 CALM      30.03R
TYLER          RAIN      70  70 100 N5        30.03R
LONGVIEW       LGT RAIN  71  71 100 N3        30.01S
MARSHALL       CLOUDY    70  68  93 NW7       30.02F
PALESTINE      RAIN      70  69  96 SW5       30.02R
JACKSONVILLE   LGT RAIN  71  70  98 SE5       30.02F
HENDERSON      LGT RAIN  70  69  98 N6        30.02F
CENTER         LGT RAIN  74  73  95 N5        30.02R
NACOGDOCHES    CLOUDY    70  68  94 MISG      29.96F
LUFKIN         LGT RAIN  70  69  97 SE9       29.97F
$$

SUPPLEMENTAL OBSERVATIONS (NWS FORT WORTH AREA)

CITY           SKY/WX    TMP DP  RH WIND       PRES   REMARKS
DENISON DAM      N/A     72  68  88 NE6         N/A
CADDO GRASSLND   N/A     75  68  78 E3          N/A
PAT MAYSE LAKE   N/A     73  72  94 NE3         N/A
GREENVILLE       N/A     72  68  88 E6          N/A
CEDAR HILL       N/A     72  68  88 SE5G18      N/A
LBJ GRASSLAND    N/A     68  64  88 N12G44      N/A
POSSUM KINGDOM   N/A     66  64  94 NE16G36     N/A
GRANBURY         N/A     72  68  88 SE10        N/A
COMANCHE         N/A     73  68  83 SE15G24     N/A
MCGREGOR         N/A     73  68  83 E20G29      N/A
TEMPLE           N/A     77  72  83 E8          N/A
LAKE LIMESTONE   N/A     70  66  88 E3G15       N/A
ATHENS           N/A     70  66  88 CALM        N/A
$$

SUPPLEMENTAL OBSERVATIONS (NWS NORMAN AREA)

CITY           SKY/WX    TMP DP  RH WIND       PRES   REMARKS
GOODLETT         N/A     62  58  86 NW10      30.15F
ODELL          LGT RAIN  64  62  94 NW3       30.16R
CROWELL          N/A     64  62  94 N14       30.15S
KNOX CITY      HVY RAIN  67  62  83 NE14      30.12R
MILLERS CREEK    N/A     64  61  88 NE15G26     N/A
$$

SUPPLEMENTAL OBSERVATIONS (NWS SAN ANGELO AREA)

CITY           SKY/WX    TMP DP  RH WIND       PRES   REMARKS
WEINERT        LGT RAIN  66  64  93 NE14      30.11R
HASKELL          N/A     67  60  75 NE21G29   30.09R
THROCKMORTON     N/A     65  65  99 NE12      30.09R
STAMFORD         N/A     68  62  81 NE17      30.10R
CLYDE            N/A     66  64  93 NE30G37   30.11R
HAMBY            N/A     66  61  82 NE20G30     N/A
IVIE RESERVOIR   N/A     72  63  73 S5          N/A
COLORADO BEND    N/A     77  72  83 S10         N/A
$$

SUPPLEMENTAL OBSERVATIONS (NWS SHREVEPORT AREA)

CITY           SKY/WX    TMP DP  RH WIND       PRES   REMARKS
CLARKSVILLE      N/A     72  66  83 E5G13       N/A
TEXARKANA        N/A     72  68  88 NE2         N/A
LINDEN           N/A     72  68  88 CALM        N/A
CADDO LAKE       N/A     72  70  94 NW3         N/A
GILMER           N/A     72  68  88 NW6G17      N/A
HENDERSON        N/A     70  68  94 N5          N/A
LUFKIN           N/A     72  68  88 MISG        N/A
N SABINE NF      N/A     70  68  94 MISG        N/A
S SABINE NF      N/A     73  68  83 W2          N/A
$$

SUPPLEMENTAL OBSERVATIONS ARE A COLLECTION OF AUTOMATED INSTRUMENTS
THAT ARE MAINTAINED BY A VARIETY OF FEDERAL AND STATE AGENCIES.
CERTAIN ELEMENTS...SUCH AS HUMIDITY VALUES AND SUSTAINED WIND
SPEEDS...MAY BE APPROXIMATED.




USA.gov is the U.S. government's official web portal to all federal, state and local government web resources and services.